Location: Baller�as
(41.9020°N, 0.1554°W)
Time: 12:26:23
(UTC+00:00)

Cosmos 1570 Rocket - Pass Details

Date: 10 August 2020
Orbit: 762 x 789 km, 74.1° (Epoch: 21 September)

Event Time Altitude Azimuth Distance (km) Brightness Sun altitude
Rises 22:17:53 0° 341° (NNW) 3,271 8.5 -27.7°
Reaches altitude 10° 22:20:17 10° 342° (NNW) 2,343 7.4 -27.9°
Enters shadow 22:25:09 73° 12° (NNE) 823 4.1 -28.3°
